Stations météo

réclame
Mon MeteoGroup
Jerez de los Caballeros, Espagne (8337): Température de l'air & dewpoint: 16.10.2017 06:00:00 - 22.10.2017 06:00:00 (CEST)Jerez de los Caballeros, Espagne (8337): Vitesse du vent & gusts: 16.10.2017 06:00:00 - 22.10.2017 06:00:00 (CEST)Jerez de los Caballeros, Espagne (8337): Direction du vent: 16.10.2017 06:00:00 - 22.10.2017 06:00:00 (CEST)Jerez de los Caballeros, Espagne (8337): reduced air pressure: 16.10.2017 06:00:00 - 22.10.2017 06:00:00 (CEST)Jerez de los Caballeros, Espagne (8337): visibility: 16.10.2017 06:00:00 - 22.10.2017 06:00:00 (CEST)Jerez de los Caballeros, Espagne (8337): Ensoleillement: 16.10.2017 06:00:00 - 22.10.2017 06:00:00 (CEST)Jerez de los Caballeros, Espagne (8337): Quantités de précipitations: 16.10.2017 06:00:00 - 22.10.2017 06:00:00 (CEST)
Date & Time tt [°C] td [°C] ff [km/h] ff [knt] fx [km/h] fx [knt] dd ppp [hPa] vv [km] sd [min] rr [mm]
22.10.2017 06:00:00 12,4 5,6 8 4 10 6 ENE 1025,8 20 0 0,0
22.10.2017 05:00:00 12,6 6,2 7 4 11 6 E 1025,4 20 0 0,0
22.10.2017 04:00:00 13,5 5,9 8 4 26 14 ESE 1025,8 20 0 0,0
22.10.2017 03:00:00 15,8 4,8 14 7 27 15 ENE 1025,7 20 0 0,0
22.10.2017 02:00:00 15,5 5,1 9 5 26 14 ESE 1025,8 20 0 -
22.10.2017 01:00:00 15,6 6,1 2 1 16 8 ESE 1025,8 20 0 0,0
22.10.2017 00:00:00 16,2 6,8 6 3 13 7 E 1025,5 20 0 0,0
21.10.2017 23:00:00 16,5 7,4 5 3 17 9 S 1025,5 20 0 0,0
21.10.2017 22:00:00 17,4 8,3 6 4 27 15 SW 1024,9 20 0 0,0
21.10.2017 21:00:00 18,6 9,7 15 8 29 16 WNW 1024,4 20 0 0,0
21.10.2017 20:00:00 20,1 12,3 11 6 26 14 NW 1023,6 20 14 -
21.10.2017 19:00:00 21,6 12,4 12 7 22 12 WNW 1023,1 20 55 0,0
21.10.2017 18:00:00 22,7 13,2 16 9 28 15 W 1022,6 20 36 0,0
21.10.2017 17:00:00 22,2 12,7 16 9 25 13 WNW 1022,8 20 30 0,0
21.10.2017 16:00:00 22,9 12,8 14 8 25 14 W 1023,1 20 59 0,0
21.10.2017 15:00:00 22,3 12,5 13 7 27 15 W 1023,7 20 40 0,0
21.10.2017 14:00:00 21,7 13,4 11 6 22 12 WSW 1024,4 20 21 -
21.10.2017 13:00:00 22,7 16,0 4 2 9 5 S 1024,7 20 34 0,0
21.10.2017 12:00:00 19,9 15,8 4 2 10 5 S 1025,4 20 25 0,0
21.10.2017 11:00:00 18,6 15,1 1 1 12 6 ESE 1025,4 20 0 0,0
21.10.2017 10:00:00 17,7 15,2 10 5 20 11 WNW 1024,9 20 0 0,0
21.10.2017 09:00:00 17,8 16,0 12 6 18 10 WNW 1024,1 20 0 0,0
21.10.2017 08:00:00 17,8 16,3 6 3 14 8 SW - - 0 -
21.10.2017 07:00:00 17,9 16,4 11 6 16 8 SW 1023,5 9 0 0,2
21.10.2017 06:00:00 18,2 16,7 8 4 13 7 SW 1023,1 6 0 0,0
21.10.2017 05:00:00 18,3 16,8 4 2 10 5 SW 1022,9 7 0 0,0
21.10.2017 04:00:00 18,4 16,9 4 2 7 4 SSW 1023,1 8 0 0,0
21.10.2017 03:00:00 18,6 17,1 4 2 6 3 SW 1023,1 5 0 0,0
21.10.2017 02:00:00 18,4 16,9 4 2 9 5 WNW 1023,2 20 0 -
21.10.2017 01:00:00 18,5 17,0 6 3 8 5 WSW - - 0 0,0
21.10.2017 00:00:00 18,9 17,2 3 2 8 5 SE 1023,1 12 0 0,0
20.10.2017 23:00:00 18,8 17,1 7 4 9 5 SW 1023,0 15 0 0,0
20.10.2017 22:00:00 18,7 17,1 6 4 13 7 W 1022,6 20 0 0,2
20.10.2017 21:00:00 18,8 17,1 9 5 30 16 WNW 1022,4 20 0 0,2
20.10.2017 20:00:00 21,2 15,7 9 5 16 9 SW 1021,4 20 0 -
20.10.2017 19:00:00 21,7 15,5 8 5 12 7 SSW 1020,7 20 2 0,0
20.10.2017 18:00:00 22,3 15,4 8 4 13 7 WSW 1020,5 20 19 0,0
20.10.2017 17:00:00 22,3 15,9 9 5 16 8 SW 1020,8 20 27 0,0
20.10.2017 16:00:00 21,2 15,7 10 5 21 12 SW 1021,0 20 3 0,0
20.10.2017 15:00:00 20,9 15,9 13 7 23 12 SSW 1021,3 20 9 0,0
20.10.2017 14:00:00 19,8 16,2 15 8 23 12 WSW 1021,8 20 0 -
20.10.2017 13:00:00 19,5 16,6 9 5 15 8 SSW 1022,0 20 6 0,0
20.10.2017 12:00:00 18,1 16,6 6 4 11 6 SSW 1021,9 8 1 0,0
20.10.2017 11:00:00 17,1 15,6 4 2 7 4 SW 1021,7 1,4 0 0,0
20.10.2017 10:00:00 16,5 15,2 4 2 6 3 ESE 1021,0 3,2 0 0,2
20.10.2017 09:00:00 16,1 14,8 3 2 4 2 WNW 1020,2 1,9 0 0,0
20.10.2017 08:00:00 16,0 14,5 1 1 3 2 W 1019,6 2,7 0 -
20.10.2017 07:00:00 15,9 14,4 3 2 6 4 SW 1019,5 1,4 0 0,0
20.10.2017 06:00:00 15,8 14,1 4 2 17 9 SW 1019,3 0,4 0 0,0
20.10.2017 05:00:00 16,1 13,9 12 6 16 9 SW 1019,2 2,0 0 0,0
20.10.2017 04:00:00 16,1 13,8 8 5 14 7 SW 1019,5 11 0 0,0
20.10.2017 03:00:00 16,3 13,9 6 3 14 8 SSW 1019,5 15 0 0,0
20.10.2017 02:00:00 16,2 13,7 12 7 19 11 WSW 1019,4 14 0 -
20.10.2017 01:00:00 16,3 13,6 16 9 24 13 W 1019,3 16 0 0,0
20.10.2017 00:00:00 15,9 13,1 9 5 20 11 W 1019,1 20 0 0,0
19.10.2017 23:00:00 16,2 13,0 10 6 13 7 W 1018,7 20 0 0,0
19.10.2017 22:00:00 16,6 13,0 8 5 11 6 W 1018,2 20 0 0,0
19.10.2017 21:00:00 17,6 13,0 8 4 23 12 SW 1017,4 20 0 0,0
19.10.2017 20:00:00 18,1 12,7 18 10 34 18 W 1016,8 20 0 -
19.10.2017 19:00:00 19,0 12,0 25 13 34 19 W 1015,7 20 0 0,0
19.10.2017 18:00:00 19,3 11,3 20 11 29 16 W 1015,3 20 2 0,0
19.10.2017 17:00:00 20,1 11,0 18 10 29 16 W 1014,8 20 40 0,0
19.10.2017 16:00:00 20,3 11,8 19 10 30 16 WSW 1014,6 20 45 0,0
19.10.2017 15:00:00 19,4 11,4 21 11 32 18 W 1015,1 20 47 0,0
19.10.2017 14:00:00 19,1 11,4 15 8 28 15 WSW 1015,3 20 14 -
19.10.2017 13:00:00 19,0 11,8 18 10 32 17 WSW 1015,3 20 44 0,0
19.10.2017 12:00:00 17,4 12,3 8 4 17 9 SSW 1014,9 20 52 0,0
19.10.2017 11:00:00 16,4 12,1 3 1 6 4 SSW 1014,8 20 27 0,0
19.10.2017 10:00:00 14,1 12,1 1 1 6 3 WSW 1014,2 20 0 0,0
19.10.2017 09:00:00 13,8 12,2 7 4 8 5 SW 1013,4 13 0 0,0
19.10.2017 08:00:00 13,8 12,0 3 2 6 4 SSW 1013,2 13 0 -
19.10.2017 07:00:00 13,7 12,1 2 1 7 4 SW 1012,8 11 0 0,0
19.10.2017 06:00:00 13,6 11,8 5 3 6 3 E 1012,4 14 0 0,0
19.10.2017 05:00:00 13,7 11,8 2 1 6 4 S 1012,3 20 0 0,0
19.10.2017 04:00:00 13,7 11,0 3 2 11 6 NNW 1012,5 20 0 0,0
19.10.2017 03:00:00 13,4 11,4 8 4 10 5 N 1012,7 20 0 0,0
19.10.2017 02:00:00 13,4 11,7 4 2 13 7 WNW 1013,2 20 0 -
19.10.2017 01:00:00 13,6 11,4 10 5 18 10 WSW 1013,8 14 0 0,6
19.10.2017 00:00:00 14,1 11,1 13 7 24 13 SW 1014,2 20 0 0,0
18.10.2017 23:00:00 14,8 10,4 21 11 39 21 WSW 1014,1 20 0 0,0
18.10.2017 22:00:00 16,1 10,9 27 15 37 20 WSW 1013,3 20 0 0,0
18.10.2017 21:00:00 16,2 10,8 15 8 29 16 SW 1013,2 20 0 0,0
18.10.2017 20:00:00 16,6 10,0 21 11 32 17 SW 1012,6 20 1 -
18.10.2017 19:00:00 17,9 10,5 18 10 34 19 SW 1012,2 20 41 0,0
18.10.2017 18:00:00 18,1 10,4 24 13 41 22 SW 1012,2 20 31 0,0
18.10.2017 17:00:00 17,9 9,6 27 15 41 22 SW 1012,4 20 36 0,0
18.10.2017 16:00:00 19,6 10,9 30 16 46 25 SW 1012,2 20 56 0,0
18.10.2017 15:00:00 19,0 11,1 33 18 46 25 SW 1012,9 20 46 0,0
18.10.2017 14:00:00 16,6 11,9 24 13 35 19 SW 1014,1 20 27 -
18.10.2017 13:00:00 16,1 12,8 20 11 30 16 SSW 1014,6 20 31 0,0
18.10.2017 12:00:00 14,4 11,9 19 10 27 14 W 1015,0 20 2 0,4
18.10.2017 11:00:00 14,2 12,5 9 5 21 11 SSW 1015,1 6 0 1,2
18.10.2017 10:00:00 14,2 12,5 16 9 22 12 SW 1014,9 20 2 0,0
18.10.2017 09:00:00 13,9 12,4 14 8 30 16 SW 1014,4 19 0 0,0
18.10.2017 08:00:00 13,7 12,2 21 11 26 14 SW 1014,1 20 0 -
18.10.2017 07:00:00 13,6 11,8 8 5 13 7 SW 1014,2 4,9 0 0,8
18.10.2017 06:00:00 13,7 11,0 3 1 10 5 WSW 1014,2 13 0 1,2
18.10.2017 05:00:00 14,3 10,3 4 2 15 8 WSW 1014,8 20 0 0,2
18.10.2017 04:00:00 15,0 10,8 9 5 19 10 SSW 1015,5 20 0 0,0
18.10.2017 03:00:00 15,7 10,3 8 4 20 11 SW 1015,4 20 0 0,0
18.10.2017 02:00:00 16,0 10,0 10 5 20 11 SW 1016,4 20 0 -
18.10.2017 01:00:00 16,5 11,0 11 6 20 11 SW 1016,9 20 0 0,0
18.10.2017 00:00:00 16,7 12,0 7 4 11 6 SW 1017,3 20 0 0,0
17.10.2017 23:00:00 16,9 9,8 2 1 6 3 W 1017,4 20 0 0,0
17.10.2017 22:00:00 17,1 8,3 2 1 11 6 SSW 1017,7 20 0 0,0
17.10.2017 21:00:00 18,0 7,4 9 5 11 6 W 1017,1 20 0 0,0
17.10.2017 20:00:00 19,5 7,3 10 5 23 12 WSW 1017,1 20 3 -
17.10.2017 19:00:00 20,3 8,9 13 7 32 17 W 1017,1 20 13 0,0
17.10.2017 18:00:00 21,3 8,3 21 11 35 19 WSW 1017,2 20 4 0,0
17.10.2017 17:00:00 21,6 10,2 23 12 38 21 WSW 1017,4 20 56 0,0
17.10.2017 16:00:00 21,9 12,4 21 11 29 16 SW 1017,6 20 58 0,0
17.10.2017 15:00:00 20,8 13,8 13 7 21 11 SW 1018,9 20 32 0,0
17.10.2017 14:00:00 18,9 13,9 11 6 19 10 SW 1020,1 20 4 -
17.10.2017 13:00:00 17,5 14,6 15 8 19 10 WSW 1020,5 20 0 0,0
17.10.2017 12:00:00 17,3 14,4 14 7 18 10 SW 1020,6 20 0 0,0
17.10.2017 11:00:00 17,3 15,3 8 4 11 6 SW 1020,6 20 0 0,0
17.10.2017 10:00:00 16,6 14,4 5 3 8 4 SSW 1020,2 20 0 0,0
17.10.2017 09:00:00 16,1 13,8 4 2 10 5 SSW 1019,8 20 0 0,4
17.10.2017 08:00:00 16,0 13,2 4 2 52 28 ESE 1019,5 8 0 -
17.10.2017 07:00:00 19,9 13,9 7 4 27 15 SSW 1018,5 17 0 0,0
17.10.2017 06:00:00 20,0 13,7 13 7 27 15 SW 1018,8 18 0 0,0
17.10.2017 05:00:00 20,3 12,3 14 8 26 14 SSW 1018,8 20 0 0,0
17.10.2017 04:00:00 21,1 11,1 16 8 31 17 S 1019,2 20 0 0,0
17.10.2017 03:00:00 21,3 10,8 12 7 21 12 SSW 1019,5 20 0 0,0
17.10.2017 02:00:00 21,7 11,1 15 8 22 12 SW 1019,9 20 0 -
17.10.2017 01:00:00 22,0 12,2 7 4 19 11 SSW 1020,4 20 0 0,0
17.10.2017 00:00:00 22,5 11,6 6 3 13 7 S 1020,4 20 0 0,0
16.10.2017 23:00:00 22,5 11,6 4 2 10 5 SW 1020,3 20 0 0,0
16.10.2017 22:00:00 23,1 11,8 8 4 20 11 ESE 1020,1 20 0 0,0
16.10.2017 21:00:00 23,0 12,0 13 7 17 9 SW 1020,4 20 0 0,0
16.10.2017 20:00:00 23,5 11,9 12 6 29 15 SSW 1020,3 18 0 -
16.10.2017 19:00:00 25,1 10,9 11 6 21 11 SSW 1019,9 20 0 0,0
16.10.2017 18:00:00 25,8 8,8 13 7 31 17 SSW 1019,7 20 0 0,0
16.10.2017 17:00:00 26,8 7,7 17 9 28 15 SSW 1019,7 20 0 0,0
16.10.2017 16:00:00 28,0 6,1 19 11 29 15 SSW 1019,6 20 39 0,0
16.10.2017 15:00:00 28,6 6,1 22 12 35 19 SSW 1020,0 20 40 0,0
16.10.2017 14:00:00 28,2 5,8 14 8 34 18 S 1020,7 20 20 -
16.10.2017 13:00:00 26,4 5,3 12 6 22 12 S 1021,2 20 8 0,0
16.10.2017 12:00:00 25,1 4,8 13 7 23 12 ENE 1021,4 20 60 0,0
16.10.2017 11:00:00 20,1 5,0 10 6 19 10 E 1022,2 20 60 0,0
16.10.2017 10:00:00 18,8 3,4 4 2 9 5 NE 1022,2 15 60 0,0
16.10.2017 09:00:00 15,0 2,5 6 4 12 7 SW 1022,1 20 4 0,0
16.10.2017 08:00:00 16,2 2,3 10 5 17 9 E 1021,3 20 0 -
16.10.2017 07:00:00 19,6 1,1 16 8 23 12 ENE 1020,2 20 0 0,0
16.10.2017 06:00:00 20,2 1,1 16 8 27 15 ENE 1019,8 20 0 0,0

tt = Température de l'air
td = dewpoint
ff = Vitesse du vent
fx = gusts
dd = Direction du vent
ppp = reduced air pressure
vv = visibility
sd = Ensoleillement
rr = Quantités de précipitations

stations d'obs. à proximité